Flag for U.S.A. Weather past 2 weeks in Waterbury, Connecticut, U.S.A.

Now
73 °F

Overcast.


Feels Like: 76 °F
Forecast: 62 / 81 °F
Wind: 5 mph from Southwest

Location: Oxford

Current Time: Jul 26, 2014 at 1:14:00 PM

Latest Report: Jul 26, 2014 at 12:50 PM


Visibility: 10 mi

Pressure: 30.00 "Hg

Humidity: 61%

Dew point: 59 °F

Location of WaterburyLocation

Historic Weather in Waterbury — Graph

°F

Waterbury temperature yesterday

Maximum temperature yesterday: 77 °F (at 4:48 PM)
Minimum temperature yesterday: 55 °F (at 5:15 AM)
Average temperature yesterday: 64 °F

Past Weeks' High & Low Weather Summary

 TemperatureHumidityPressure
High84 °F (Jul 23, 12:45 PM)100% (Jul 15, 12:45 PM)30.30 "Hg (Jul 15, 12:45 PM)
Low55 °F (Jul 18, 4:55 AM)36% (Jul 13, 11:45 AM)29.78 "Hg (Jul 15, 5:45 PM)
Average68 °F75%30.06 "Hg
* Reported Jul 11 11:45 AM — Jul 26 11:50 AM, Waterbury, Weather by CustomWeather, © 2014

Note: Actual official high and low records may vary slightly from our data, if they occured in-between our weather recording intervals... More about our weather records

Advertising

Waterbury weather history for previous 24 hours

 ConditionsComfort  
Time TempWeatherWind HumidityBarometerVisibility
11:50 AM
Jul 26
75 °FPassing clouds.5 mph57%30.01 "Hg10 mi
5:55 AM59 °FClear.No wind82%30.03 "Hg10 mi
5:35 AM61 °FClear.No wind83%30.02 "Hg10 mi
5:15 AM61 °FClear.No wind83%30.02 "Hg10 mi
4:55 AM61 °FClear.No wind83%30.01 "Hg10 mi
4:35 AM63 °FClear.No wind77%30.01 "Hg10 mi
4:15 AM63 °FClear.No wind83%30.01 "Hg10 mi
3:55 AM63 °FClear.No wind83%30.01 "Hg10 mi
3:35 AM63 °FClear.No wind83%30.01 "Hg10 mi
3:15 AM63 °FClear.No wind77%30.01 "Hg10 mi
2:55 AM61 °FClear.No wind83%30.01 "Hg10 mi
2:35 AM61 °FClear.No wind83%30.01 "Hg10 mi
2:15 AM61 °FClear.No wind83%30.02 "Hg10 mi
1:55 AM61 °FClear.No wind83%30.02 "Hg10 mi
1:35 AM61 °FClear.No wind83%30.03 "Hg10 mi
1:15 AM63 °FClear.No wind77%30.03 "Hg10 mi
12:55 AM63 °FClear.No wind77%30.03 "Hg10 mi
12:35 AM63 °FClear.No wind77%30.03 "Hg10 mi
12:15 AM64 °FClear.No wind73%30.03 "Hg10 mi
11:55 PM
Jul 25
64 °FClear.No wind73%30.04 "Hg10 mi
11:35 PM64 °FClear.No wind73%30.04 "Hg10 mi
10:55 PM64 °FClear.No wind73%30.04 "Hg10 mi
10:35 PM64 °FClear.3 mph73%30.04 "Hg10 mi
10:15 PM63 °FClear.No wind77%30.05 "Hg10 mi
9:55 PM64 °FClear.No wind78%30.05 "Hg10 mi
9:35 PM64 °FClear.No wind78%30.05 "Hg10 mi
9:15 PM66 °FSunny.No wind73%30.04 "Hg10 mi
7:48 PM72 °FSunny.No wind65%30.01 "Hg10 mi
6:48 PM75 °FSunny.No wind50%30.01 "Hg10 mi
5:55 PM75 °FSunny.No wind50%30.01 "Hg10 mi
4:48 PM77 °FSunny.6 mph51%30.01 "Hg10 mi
3:50 PM75 °FPassing clouds.6 mph54%30.02 "Hg10 mi
2:50 PM75 °FPassing clouds.3 mph50%30.03 "Hg10 mi
Weather by CustomWeather, © 2014

See weather overviewHow to use our weather pages